#timestamp,LO_Frequency,Hit,StdDev 
1619060415.9,286047002.4,N
1619060435.7,286047002.7,N
1619060455.6,286047002.5,N
1619060475.4,286047002.4,N
1619060495.2,286047002.0,N
1619060515.1,286047002.1,N
1619060516.0,286047002.1,N
1619060535.8,286047002.1,N
1619060555.6,286047002.1,N
1619060575.5,286047001.9,N
1619060595.3,286047002.8,N
1619060615.2,286047002.5,N
1619060635.9,286047002.8,N
1619060655.7,286046999.7,N
1619060675.6,286046999.8,N
1619060695.4,286047000.6,N
1619060715.3,286047000.3,N
1619060735.1,286047002.7,N
1619060736.0,286047002.7,N
1619060755.8,286047002.6,N
1619060775.7,286046999.8,N
1619060795.5,286047000.2,N
1619060815.3,286046999.7,N
1619060835.2,286047002.7,N
1619060855.0,286047002.4,N
1619060855.9,286047002.4,N
1619060875.8,286047002.4,N
1619060895.6,286046999.7,N
1619060915.4,286046999.9,N
1619060935.3,286047000.0,N
1619060955.1,286047000.5,N
1619060975.9,286047000.4,N
1619060995.7,286046999.8,N
1619061015.5,286046999.9,N
1619061035.4,286047000.1,N
1619061055.2,286047002.3,N
1619061075.0,286047002.1,N
1619061076.0,286047002.1,N
1619061095.8,286047002.7,N
1619061115.6,286046999.7,N
1619061135.5,286046999.7,N
1619061155.3,286047000.1,N
1619061175.1,286047002.7,N
1619061195.9,286047001.5,N
1619061215.7,286047002.6,N
1619061235.6,286047002.2,N
1619061255.4,286047002.6,N
1619061275.2,286047002.4,N
1619061295.1,286047002.6,N
1619061296.0,286047002.6,N
1619061315.8,286047002.8,N
1619061335.6,286047002.8,N
1619061355.5,286047002.8,N
1619061375.3,286047000.2,N
1619061395.2,286047002.8,N
1619061415.9,286047002.0,N
1619061435.7,286047002.7,N
1619061455.6,286047002.3,N
1619061475.4,286047002.7,N
1619061495.2,286047002.4,N
1619061515.1,286047002.4,N
1619061516.0,286047002.4,N
1619061535.8,286047002.4,N
1619061555.7,286047002.7,N
1619061575.5,286046999.7,N
1619061595.3,286047002.6,N
1619061615.2,286046999.9,N
1619061635.0,286046999.8,N
1619061635.9,286046999.8,N
1619061655.8,286047002.8,N
1619061675.6,286047000.3,N
1619061695.4,286047000.6,N
1619061715.3,286047000.5,N
1619061735.1,286047000.5,N
1619061755.8,286047000.4,N
1619061775.7,286047000.4,N
1619061795.5,286046999.8,N
1619061815.4,286047000.5,N
1619061835.2,286047000.1,N
1619061855.0,286047000.5,N
1619061855.9,286047000.5,N
1619061875.8,286047000.4,N
1619061895.6,286047000.3,N
1619061915.5,286047000.5,N
1619061935.3,286047000.9,N
1619061955.1,286046999.8,N
1619061975.9,286047000.5,N
1619061995.7,286047000.6,N
1619062015.5,286047000.3,N
1619062035.4,286046999.9,N
1619062055.2,286047000.5,N
1619062075.1,286047002.8,Y
1619062076.0,286047002.8,P
1619062095.8,286046999.8,N
1619062115.6,286047000.0,N
1619062135.5,286047000.0,N
1619062155.3,286047002.3,N
1619062175.2,286047000.2,N
1619062195.9,286047002.7,N
1619062215.7,286047000.0,N
1619062235.6,286047000.0,N
1619062255.4,286047000.0,N
1619062275.2,286047000.5,N
1619062295.1,286047000.9,N
1619062296.0,286047000.9,N
1619062315.8,286047000.7,N
1619062335.7,286047001.1,N
1619062355.5,286046998.1,N
1619062375.3,286047000.9,N
1619062395.2,286047001.0,N
1619062415.9,286047001.0,N
1619062435.7,286047000.7,N
1619062455.6,286047001.0,N
1619062475.4,286047000.8,N
1619062495.3,286047001.1,N
1619062515.1,286047000.9,N
1619062516.0,286047000.9,N
1619062535.8,286047000.2,N
1619062555.7,286047000.4,N
1619062575.5,286047000.7,N
1619062595.3,286047000.5,N
1619062615.2,286047000.2,N
1619062635.0,286046999.9,N
1619062635.9,286046999.9,N
1619062655.8,286047000.3,N
1619062675.6,286047000.0,N
1619062695.4,286047000.4,N
1619062715.3,286047001.2,N
1619062735.1,286047000.2,N
1619062755.9,286047000.5,N
1619062775.7,286047000.9,N
1619062795.5,286047000.7,N
1619062815.4,286047000.7,N
1619062835.2,286047001.2,N
1619062855.0,286047000.9,N
1619062855.9,286047000.9,N
1619062875.8,286047000.6,N
1619062895.6,286047000.9,N
1619062915.5,286047000.6,N
1619062935.3,286047000.9,N
1619062955.1,286047000.8,N
1619062975.9,286047001.2,Y
1619062995.7,286046998.6,P
1619063015.5,286046998.7,N
1619063035.4,286046998.8,N
1619063055.2,286046998.8,N
1619063075.1,286046998.3,N
1619063076.0,286046998.3,N
1619063095.8,286046998.5,N
1619063115.6,286046998.5,N
1619063135.5,286046998.6,N
1619063155.3,286046998.5,N
1619063175.1,286046998.3,N
1619063195.9,286047001.2,N
1619063215.7,286046998.7,N
1619063235.6,286046998.4,N
1619063255.4,286046998.8,N
1619063275.2,286046998.9,N
1619063295.1,286046999.2,N
1619063296.0,286046999.2,N
1619063315.8,286046999.3,N
1619063335.6,286046998.8,N
1619063355.5,286046998.7,N
1619063375.3,286046998.4,N
1619063395.2,286046998.3,N
1619063415.9,286046998.8,N
1619063435.7,286046998.3,N
1619063455.6,286047000.3,N
1619063475.4,286047001.2,N
1619063495.2,286047000.8,N
1619063515.1,286046998.1,N
1619063516.0,286046998.1,N
1619063535.8,286047000.6,N
1619063555.7,286047000.7,N
1619063575.5,286047001.2,N
1619063595.3,286047001.2,N
1619063615.2,286046998.6,N
1619063635.0,286046998.2,N
1619063635.9,286046998.2,N
1619063655.8,286046998.7,N
1619063675.6,286046998.3,N
1619063695.4,286046998.8,N
1619063715.3,286046998.5,N
1619063735.1,286046998.8,N
1619063755.8,286046998.7,N
1619063775.7,286046998.9,N
1619063795.5,286046998.9,N
1619063815.4,286046999.0,N
1619063835.2,286046998.8,N
1619063855.0,286046998.3,N
1619063855.9,286046998.3,N
1619063875.8,286046998.7,N
1619063895.6,286046998.6,N
1619063915.5,286046998.5,N
1619063935.3,286046998.3,N
1619063955.1,286046998.3,N
1619063975.9,286046998.6,N
1619063995.7,286046998.2,N
